2023-003E (55137 NORAD) Tracking and Keplerian Element Data

This shows tracking and keplerian element data for the satellite.

Feedback or suggestion? Click here.




ElementValue
Catalog55137
Name2023-003E
Epoch Orbit74
Epoch Day14.13359899
Epoch Year2023
RAAN104.0536
Inclination97.2686
Eccentricity0.0012176
Argument of Perigee280.7451
Mean Anonmoly143.8727
Mean Motion15.21318918
Decay Rate8.942E-05
L11 55137U 23003E 23014.13359899 .00008942 00000+0 40160-3 0 9992
L22 55137 97.2686 104.0536 0012176 280.7451 143.8727 15.21318918 746



Live tracking and technical data element details for 2023-003E (NORAD 55137). 2023-003E can be tracked NOW for your location showing map with azimuth and elevation plus other details from your city location.







IsCatalogInMostPopularTable: catalog: 55137, numindb: 4
Update: records affected: 1



GetName: 55137 2023-003E

Hit Count: updated at: Tue, 07 Feb 2023 15:07:13 GMT